TimeCST,TemperatureF,Dew PointF,Humidity,Sea Level PressureIn,VisibilityMPH,Wind Direction,Wind SpeedMPH,Gust SpeedMPH,PrecipitationIn,Events,Conditions,WindDirDegrees,DateUTC
12:15 AM,44.6,35.6,71,30.37,10.0,Calm,Calm,-,N/A,,Clear,0,2012-11-16 06:15:00
12:35 AM,44.6,35.6,71,30.37,10.0,Calm,Calm,-,N/A,,Clear,0,2012-11-16 06:35:00
12:55 AM,44.6,33.8,66,30.37,10.0,Calm,Calm,-,N/A,,Clear,0,2012-11-16 06:55:00
1:15 AM,42.8,35.6,76,30.37,10.0,SW,3.5,-,N/A,,Clear,220,2012-11-16 07:15:00
1:35 AM,41.0,35.6,81,30.37,10.0,Calm,Calm,-,N/A,,Clear,0,2012-11-16 07:35:00
1:55 AM,39.2,33.8,81,30.38,10.0,Calm,Calm,-,N/A,,Clear,0,2012-11-16 07:55:00
2:15 AM,39.2,33.8,81,30.38,10.0,North,3.5,-,N/A,,Clear,10,2012-11-16 08:15:00
2:35 AM,37.4,33.8,87,30.39,10.0,North,5.8,-,N/A,,Clear,360,2012-11-16 08:35:00
2:55 AM,37.4,35.6,93,30.39,10.0,NE,4.6,-,N/A,,Clear,40,2012-11-16 08:55:00
3:15 AM,37.4,35.6,93,30.39,10.0,ENE,4.6,-,N/A,,Clear,60,2012-11-16 09:15:00
3:35 AM,37.4,35.6,93,30.39,10.0,Calm,Calm,-,N/A,,Clear,0,2012-11-16 09:35:00
3:55 AM,37.4,35.6,93,30.39,10.0,Calm,Calm,-,N/A,,Clear,0,2012-11-16 09:55:00
4:15 AM,37.4,33.8,87,30.39,10.0,NNE,3.5,-,N/A,,Clear,20,2012-11-16 10:15:00
4:35 AM,35.6,33.8,93,30.38,10.0,NNE,3.5,-,N/A,,Clear,20,2012-11-16 10:35:00
4:55 AM,37.4,35.6,93,30.39,10.0,NNE,3.5,-,N/A,,Clear,30,2012-11-16 10:55:00
5:15 AM,37.4,33.8,87,30.40,10.0,Calm,Calm,-,N/A,,Clear,0,2012-11-16 11:15:00
5:35 AM,37.4,33.8,87,30.40,10.0,Calm,Calm,-,N/A,,Clear,0,2012-11-16 11:35:00
5:55 AM,35.6,33.8,93,30.40,10.0,Calm,Calm,-,N/A,,Clear,0,2012-11-16 11:55:00
6:15 AM,37.4,33.8,87,30.40,10.0,Calm,Calm,-,N/A,,Clear,0,2012-11-16 12:15:00
6:35 AM,37.4,33.8,87,30.40,10.0,ENE,3.5,-,N/A,,Clear,70,2012-11-16 12:35:00
6:55 AM,35.6,33.8,93,30.41,10.0,NE,3.5,-,N/A,,Clear,40,2012-11-16 12:55:00
7:15 AM,35.6,33.8,93,30.41,10.0,Calm,Calm,-,N/A,,Clear,0,2012-11-16 13:15:00
7:35 AM,37.4,33.8,87,30.42,10.0,Calm,Calm,-,N/A,,Clear,0,2012-11-16 13:35:00
7:55 AM,37.4,35.6,93,30.42,10.0,Calm,Calm,-,N/A,,Clear,0,2012-11-16 13:55:00
8:15 AM,41.0,39.2,93,30.42,10.0,Calm,Calm,-,N/A,,Clear,0,2012-11-16 14:15:00
8:35 AM,46.4,39.2,76,30.42,10.0,Calm,Calm,-,N/A,,Clear,0,2012-11-16 14:35:00
8:55 AM,50.0,41.0,71,30.42,10.0,Calm,Calm,-,N/A,,Clear,0,2012-11-16 14:55:00
9:15 AM,51.8,39.2,62,30.43,10.0,Calm,Calm,-,N/A,,Clear,0,2012-11-16 15:15:00
9:35 AM,53.6,39.2,58,30.43,10.0,Calm,Calm,-,N/A,,Clear,0,2012-11-16 15:35:00
9:55 AM,53.6,41.0,62,30.44,10.0,Calm,Calm,-,N/A,,Clear,0,2012-11-16 15:55:00
10:15 AM,55.4,39.2,54,30.43,10.0,Calm,Calm,-,N/A,,Clear,0,2012-11-16 16:15:00
10:35 AM,59.0,39.2,48,30.43,10.0,East,3.5,-,N/A,,Clear,90,2012-11-16 16:35:00
10:55 AM,60.8,37.4,42,30.43,10.0,East,3.5,-,N/A,,Clear,80,2012-11-16 16:55:00
11:15 AM,60.8,35.6,39,30.42,10.0,ESE,3.5,-,N/A,,Clear,120,2012-11-16 17:15:00
11:35 AM,60.8,33.8,36,30.42,10.0,Calm,Calm,-,N/A,,Clear,0,2012-11-16 17:35:00
11:55 AM,62.6,33.8,34,30.41,10.0,SSE,6.9,-,N/A,,Clear,150,2012-11-16 17:55:00
12:15 PM,62.6,33.8,34,30.40,10.0,East,5.8,-,N/A,,Clear,100,2012-11-16 18:15:00
12:35 PM,62.6,33.8,34,30.39,10.0,South,4.6,-,N/A,,Clear,190,2012-11-16 18:35:00
12:55 PM,64.4,35.6,34,30.39,10.0,South,3.5,-,N/A,,Clear,170,2012-11-16 18:55:00
1:15 PM,64.4,35.6,34,30.38,10.0,Calm,Calm,-,N/A,,Clear,0,2012-11-16 19:15:00
1:35 PM,64.4,35.6,34,30.37,10.0,East,6.9,-,N/A,,Clear,100,2012-11-16 19:35:00
1:55 PM,64.4,35.6,34,30.36,10.0,SE,5.8,-,N/A,,Clear,140,2012-11-16 19:55:00
2:15 PM,66.2,35.6,32,30.35,10.0,SSE,3.5,-,N/A,,Clear,160,2012-11-16 20:15:00
2:35 PM,64.4,35.6,34,30.35,10.0,East,6.9,-,N/A,,Clear,90,2012-11-16 20:35:00
2:55 PM,66.2,35.6,32,30.34,10.0,SSE,8.1,-,N/A,,Clear,150,2012-11-16 20:55:00
3:15 PM,64.4,35.6,34,30.34,10.0,East,5.8,-,N/A,,Clear,90,2012-11-16 21:15:00
3:35 PM,64.4,35.6,34,30.34,10.0,SE,8.1,-,N/A,,Clear,130,2012-11-16 21:35:00
3:55 PM,64.4,35.6,34,30.34,10.0,East,4.6,-,N/A,,Clear,100,2012-11-16 21:55:00
4:15 PM,64.4,35.6,34,30.35,10.0,ESE,5.8,-,N/A,,Clear,110,2012-11-16 22:15:00
4:35 PM,62.6,37.4,39,30.35,10.0,ESE,3.5,-,N/A,,Clear,120,2012-11-16 22:35:00
4:55 PM,60.8,35.6,39,30.35,10.0,Calm,Calm,-,N/A,,Clear,0,2012-11-16 22:55:00
5:15 PM,60.8,35.6,39,30.35,10.0,SE,3.5,-,N/A,,Clear,130,2012-11-16 23:15:00
5:35 PM,57.2,37.4,48,30.35,10.0,SE,3.5,-,N/A,,Clear,130,2012-11-16 23:35:00
5:55 PM,55.4,35.6,47,30.35,10.0,ESE,4.6,-,N/A,,Clear,120,2012-11-16 23:55:00
6:15 PM,55.4,35.6,47,30.35,10.0,SE,4.6,-,N/A,,Clear,130,2012-11-17 00:15:00
6:35 PM,55.4,35.6,47,30.35,10.0,ESE,4.6,-,N/A,,Clear,120,2012-11-17 00:35:00
6:55 PM,53.6,35.6,51,30.35,10.0,ESE,4.6,-,N/A,,Clear,120,2012-11-17 00:55:00
7:15 PM,53.6,35.6,51,30.36,10.0,SE,4.6,-,N/A,,Clear,130,2012-11-17 01:15:00
7:55 PM,51.8,35.6,54,30.36,10.0,ESE,4.6,-,N/A,,Clear,120,2012-11-17 01:55:00
8:15 PM,51.8,35.6,54,30.36,10.0,ESE,5.8,-,N/A,,Clear,120,2012-11-17 02:15:00
8:35 PM,50.0,35.6,58,30.37,10.0,ESE,5.8,-,N/A,,Clear,120,2012-11-17 02:35:00
8:55 PM,50.0,35.6,58,30.37,10.0,ESE,5.8,-,N/A,,Clear,120,2012-11-17 02:55:00
9:15 PM,50.0,35.6,58,30.37,10.0,ESE,6.9,-,N/A,,Clear,120,2012-11-17 03:15:00
9:55 PM,46.4,35.6,66,30.36,10.0,ESE,5.8,-,N/A,,Clear,120,2012-11-17 03:55:00
10:15 PM,48.2,35.6,62,30.36,10.0,ESE,5.8,-,N/A,,Clear,120,2012-11-17 04:15:00
10:35 PM,46.4,35.6,66,30.36,10.0,ESE,5.8,-,N/A,,Clear,120,2012-11-17 04:35:00
10:55 PM,46.4,35.6,66,30.36,10.0,SE,5.8,-,N/A,,Clear,130,2012-11-17 04:55:00
11:15 PM,46.4,35.6,66,30.36,10.0,ESE,6.9,-,N/A,,Clear,120,2012-11-17 05:15:00
11:35 PM,46.4,35.6,66,30.36,10.0,SE,4.6,-,N/A,,Clear,140,2012-11-17 05:35:00
11:55 PM,44.6,35.6,71,30.36,10.0,SE,3.5,-,N/A,,Clear,140,2012-11-17 05:55:00